This is the latest recevied weather packets stored in our database for station/object KI6PPU. If no packets are shown the sender has not sent any weather packets the latest 1 day(s).
| Time | Temp. | Humidity | Pressure | Rain* | Wind** | Luminosity | Snow |
|---|---|---|---|---|---|---|---|
| 1778029767 | 15° C | 86% | 1017.8 hPa | 0 mm | 0.45 m/s, 74° | 69 W/m² | - |
| 1778029466 | 15° C | 85% | 1017.8 hPa | 0 mm | 0 m/s | 75 W/m² | - |
| 1778029162 | 15° C | 86% | 1017.8 hPa | 0 mm | 0 m/s | 57 W/m² | - |
| 1778028860 | 15° C | 86% | 1018.1 hPa | 0 mm | 0.89 m/s, 81° | 43 W/m² | - |
| 1778028554 | 15° C | 85% | 1017.9 hPa | 0 mm | 0 m/s | 38 W/m² | - |
| 1778028253 | 15° C | 85% | 1018 hPa | 0 mm | 0 m/s | 34 W/m² | - |
| 1778027949 | 14.44° C | 85% | 1017.7 hPa | 0 mm | 0 m/s | 35 W/m² | - |
| 1778027645 | 15° C | 85% | 1017.7 hPa | 0 mm | 0 m/s | 35 W/m² | - |
| 1778027342 | 15° C | 86% | 1017.8 hPa | 0 mm | 0 m/s | 31 W/m² | - |
| 1778027038 | 15° C | 86% | 1017.8 hPa | 0 mm | 0 m/s | 33 W/m² | - |
| 1778026733 | 15° C | 86% | 1017.8 hPa | 0 mm | 0 m/s | 34 W/m² | - |
| 1778026430 | 15° C | 86% | 1017.9 hPa | 0 mm | 0.45 m/s, 98° | 34 W/m² | - |
| 1778026134 | 15° C | 85% | 1017.7 hPa | 0 mm | 0 m/s | 34 W/m² | - |
| 1778025826 | 15° C | 86% | 1017.7 hPa | 0 mm | 0 m/s | 34 W/m² | - |
| 1778025522 | 15° C | 85% | 1017.6 hPa | 0 mm | 0 m/s | 35 W/m² | - |
| 1778025219 | 15° C | 86% | 1017.6 hPa | 0 mm | 0.89 m/s, 52° | 34 W/m² | - |
| 1778024916 | 15° C | 85% | 1017.6 hPa | 0 mm | 0 m/s | 34 W/m² | - |
| 1778024614 | 15° C | 85% | 1017.5 hPa | 0 mm | 0 m/s | 34 W/m² | - |
| 1778024316 | 15° C | 83% | 1017.7 hPa | 0 mm | 0 m/s | 38 W/m² | - |
| 1778024009 | 15° C | 81% | 1017.5 hPa | 0 mm | 0.45 m/s, 151° | 38 W/m² | - |
| 1778023706 | 15° C | 83% | 1017.5 hPa | 0 mm | 1.79 m/s, 132° | 39 W/m² | - |
| 1778023404 | 15° C | 83% | 1017.5 hPa | 0 mm | 0.89 m/s, 135° | 39 W/m² | - |
| 1778023100 | 15° C | 81% | 1017.6 hPa | 0 mm | 0 m/s | 39 W/m² | - |
| 1778022798 | 15.56° C | 82% | 1017.7 hPa | 0 mm | 0.89 m/s, 123° | 38 W/m² | - |
| 1778022496 | 15° C | 80% | 1017.6 hPa | 0 mm | 0 m/s | 38 W/m² | - |
* Rain latest hour (hover to see other rain measurements)
** Current wind speed in m/s (hover to see current wind gust speed)